Location: Glens Falls
(43.3090°N, 73.6440°W)
Time: 10:21:32
(UTC-04:00)

Cosmos 44 - Pass Details

Date: 24 February 2018
Orbit: 576 x 786 km, 65.1° (Epoch: 20 June)

Event Time Altitude Azimuth Distance (km) Brightness Sun altitude
Rises 17:59:27 0° 324° (NW) 3,085 7.1 -4.8°
Reaches altitude 10° 18:01:45 10° 322° (NW) 2,196 6.3 -5.2°
Maximum altitude 18:06:46 71° 239° (WSW) 787 3.8 -6.1°
Drops below altitude 10° 18:12:01 10° 157° (SSE) 2,297 5.8 -7.1°
Sets 18:14:28 0° 155° (SSE) 3,238 6.5 -7.5°
